This demonstration page uses our WeatherBlox Daily Observations layout. Learn more.

Hourly Observations for January 2, 2015

Temp ( °F °C ) Dew Point ( °F °C ) Humidity (%) Winds ( mph kmh ) Pressure ( in mb ) Visibility ( mi km ) Precip ( " mm )
12:15 am 00:15 Clear 14 -9.8 10 -12.1 83 83 NW 5 7 30.3 1026 10 16.0934 0 0
12:35 am 00:35 Clear 14 -10.2 10 -12.3 85 85 NW 6 9 30.3 1026 10 16.0934 0 0
12:55 am 00:55 Clear 13 -10.6 9 -12.9 83 83 NW 7 11 30.3 1026 10 16.0934 0 0
1:15 am 01:15 Clear 13 -10.5 9 -12.6 85 85 NW 3 6 30.3 1026 10 16.0934 0 0
1:35 am 01:35 Clear 12 -11 8 -13.3 83 83 NW 5 7 30.3 1026 10 16.0934 0 0
1:55 am 01:55 Clear 12 -11.1 8 -13.2 85 85 NW 3 6 30.3 1026 10 16.0934 0 0
2:15 am 02:15 Clear 12 -11.2 8 -13.3 85 85 NNW 3 6 30.3 1026 10 16.0934 0 0
2:35 am 02:35 Clear 13 -10.5 9 -12.6 85 85 NNW 5 7 30.3 1026 10 16.0934 0 0
2:55 am 02:55 Clear 12 -11.2 8 -13.5 83 83 NNW 5 7 30.3 1026 10 16.0934 0 0
3:15 am 03:15 Clear 12 -11 9 -12.9 86 86 Calm 30.3 1026 10 16.0934 0 0
3:35 am 03:35 Clear 13 -10.8 9 -12.7 86 86 Calm 30.33 1027 10 16.0934 0 0
3:55 am 03:55 Clear 12 -11 9 -12.8 87 87 NW 5 7 30.3 1026 10 16.0934 0 0
4:15 am 04:15 Clear 12 -11.1 9 -12.9 87 87 Calm 30.3 1026 10 16.0934 0 0
4:35 am 04:35 Clear 10 -12.2 7 -13.9 87 87 Calm 30.33 1027 10 16.0934 0 0
4:55 am 04:55 Clear 8 -13.1 6 -14.5 89 89 N 5 7 30.33 1027 10 16.0934 0 0
5:15 am 05:15 Clear 10 -12 8 -13.3 90 90 N 3 6 30.33 1027 10 16.0934 0 0
5:35 am 05:35 Clear 13 -10.3 11 -11.9 88 88 N 9 15 30.3 1026 10 16.0934 0 0
5:55 am 05:55 Clear 11 -11.6 8 -13.3 87 87 N 6 9 30.33 1027 10 16.0934 0 0
6:15 am 06:15 Clear 12 -11 9 -12.6 88 88 Calm 30.3 1026 10 16.0934 0 0
6:35 am 06:35 Clear 11 -11.9 8 -13.5 88 88 Calm 30.33 1027 10 16.0934 0 0
6:55 am 06:55 Clear 10 -12 8 -13.5 89 89 Calm 30.36 1028 10 16.0934 0 0
7:15 am 07:15 Clear 10 -12 8 -13.6 88 88 Calm 30.36 1028 10 16.0934 0 0
7:35 am 07:35 Clear 10 -12.3 7 -13.7 89 89 Calm 30.36 1028 10 16.0934 0 0
7:55 am 07:55 Clear 10 -12 8 -13.2 91 91 Calm 30.33 1027 10 16.0934 0 0
8:15 am 08:15 Sunny 7 -13.7 4 -15.4 87 87 Calm 30.39 1029 10 16.0934 0 0
8:35 am 08:35 Sunny 8 -13.2 6 -14.7 89 89 NW 3 6 30.36 1028 10 16.0934 0 0
8:55 am 08:55 Sunny 10 -12.5 7 -13.9 89 89 Calm 30.36 1028 10 16.0934 0 0
9:15 am 09:15 Sunny 11 -11.5 8 -13.1 88 88 Calm 30.33 1027 10 16.0934 0 0
9:35 am 09:35 Sunny 14 -10.1 11 -11.8 88 88 Calm 30.33 1027 10 16.0934 0 0
9:55 am 09:55 Sunny 16 -9 12 -11 86 86 NNW 3 6 30.33 1027 10 16.0934 0 0
10:15 am 10:15 Sunny 18 -7.6 15 -9.7 85 85 Calm 30.3 1026 10 16.0934 0 0
10:35 am 10:35 Sunny 21 -6.3 15 -9.2 80 80 NNW 3 6 30.3 1026 10 16.0934 0 0
10:55 am 10:55 Sunny 22 -5.6 16 -9 77 77 Calm 30.3 1026 10 16.0934 0 0
11:15 am 11:15 Sunny 23 -5.1 17 -8.5 77 77 NW 5 7 30.24 1024 10 16.0934 0 0
11:35 am 11:35 Sunny 24 -4.4 18 -8 76 76 NW 3 6 30.24 1024 10 16.0934 0 0
11:55 am 11:55 Sunny 25 -4 18 -8 74 74 NW 3 6 30.24 1024 10 16.0934 0 0
12:15 pm 12:15 Sunny 26 -3.5 18 -7.6 74 74 NW 5 7 30.21 1023 10 16.0934 0 0
12:35 pm 12:35 Sunny 27 -3 19 -7.4 72 72 Calm 30.21 1023 10 16.0934 0 0
12:55 pm 12:55 Sunny 27 -2.6 19 -7 72 72 Calm 30.15 1021 10 16.0934 0 0
1:15 pm 13:15 Sunny 28 -2.2 19 -7.3 68 68 Calm 30.15 1021 10 16.0934 0 0
1:35 pm 13:35 Sunny 30 -1.3 18 -7.7 62 62 Calm 30.15 1021 10 16.0934 0 0
1:55 pm 13:55 Sunny 29 -1.7 19 -7.5 65 65 Calm 30.12 1020 10 16.0934 0 0
2:15 pm 14:15 Sunny 29 -1.5 19 -7.2 66 66 Calm 30.12 1020 10 16.0934 0 0
2:35 pm 14:35 Sunny 30 -0.9 19 -7.1 63 63 Calm 30.12 1020 10 16.0934 0 0
2:55 pm 14:55 Sunny 30 -1.1 20 -6.8 66 66 Calm 30.09 1019 10 16.0934 0 0
3:15 pm 15:15 Sunny 30 -0.9 19 -7 64 64 Calm 30.09 1019 10 16.0934 0 0
3:35 pm 15:35 Sunny 30 -1 22 -5.8 70 70 SSE 3 6 30.09 1019 10 16.0934 0 0
3:55 pm 15:55 Sunny 30 -1.1 20 -6.6 67 67 SSE 3 6 30.09 1019 10 16.0934 0 0
4:15 pm 16:15 Sunny 29 -1.5 21 -6 72 72 SSE 7 11 30.09 1019 10 16.0934 0 0
4:35 pm 16:35 Sunny 29 -1.5 20 -6.6 69 69 S 5 7 30.09 1019 10 16.0934 0 0
4:55 pm 16:55 Sunny 29 -1.7 20 -6.7 69 69 Calm 30.09 1019 10 16.0934 0 0
5:15 pm 17:15 Sunny 26 -3.2 19 -7.1 75 75 Calm 30.09 1019 10 16.0934 0 0
5:35 pm 17:35 Clear 26 -3.3 20 -6.9 76 76 SW 5 7 30.09 1019 10 16.0934 0 0
5:55 pm 17:55 Clear 25 -4.1 19 -7 80 80 SW 5 7 30.12 1020 10 16.0934 0 0
6:15 pm 18:15 Clear 23 -4.8 19 -7.5 82 82 SW 6 9 30.12 1020 10 16.0934 0 0
6:35 pm 18:35 Clear 23 -5.1 18 -8 80 80 SW 5 7 30.12 1020 10 16.0934 0 0
6:55 pm 18:55 Clear 22 -5.5 17 -8.4 80 80 SSW 5 7 30.09 1019 10 16.0934 0 0
7:15 pm 19:15 Clear 22 -5.6 17 -8.6 80 80 SSW 5 7 30.09 1019 10 16.0934 0 0
7:35 pm 19:35 Clear 21 -6.2 16 -9 81 81 SSW 3 6 30.09 1019 10 16.0934 0 0
7:55 pm 19:55 Clear 22 -5.5 17 -8.5 80 80 SSW 7 11 30.09 1019 10 16.0934 0 0
8:15 pm 20:15 Clear 22 -5.8 16 -8.8 80 80 SSW 5 7 30.09 1019 10 16.0934 0 0
8:35 pm 20:35 Clear 20 -6.9 16 -9 85 85 SW 5 7 30.12 1020 10 16.0934 0 0
8:55 pm 20:55 Clear 20 -6.6 16 -9 83 83 Calm 30.12 1020 10 16.0934 0 0
9:15 pm 21:15 Clear 19 -7 15 -9.5 83 83 S 6 9 30.12 1020 10 16.0934 0 0
9:35 pm 21:35 Clear 19 -7.5 15 -9.7 84 84 S 3 6 30.12 1020 10 16.0934 0 0
9:55 pm 21:55 Clear 17 -8.2 14 -10.1 86 86 Calm 30.09 1019 10 16.0934 0 0
10:15 pm 22:15 Clear 17 -8.4 13 -10.5 85 85 SW 3 6 30.12 1020 10 16.0934 0 0
10:35 pm 22:35 Clear 17 -8.4 13 -10.5 85 85 Calm 30.09 1019 10 16.0934 0 0
10:55 pm 22:55 Clear 17 -8.4 13 -10.6 84 84 SW 3 6 30.09 1019 10 16.0934 0 0
11:15 pm 23:15 Clear 18 -8 14 -10.2 84 84 SW 6 9 30.09 1019 10 16.0934 0 0
11:35 pm 23:35 Clear 17 -8.4 13 -10.7 84 84 SSW 6 9 30.09 1019 10 16.0934 0 0
11:55 pm 23:55 Clear 16 -8.9 12 -10.9 86 86 SW 3 6 30.09 1019 10 16.0934 0 0

Powered by AerisWeather